Theta_e
290 283 280 279 282 284 286 288 288 286 288 286 286 285 284 283 284 287 287 289 291 286 285 286 286 286 286 288 289 291 290 289 288 287 287 287 287 287 287 287 288 288 289 291 291 292 292 292 293 293 293 292 292 292 292 291 291 292 292 292 292 293 294 295 295 295 295 295 296 297 297 296 296 296 297 297 298 299 298 299 299 300 300 299 299 299
289 282 282 284 284 285 286 288 289 288 288 286 284 283 282 283 282 286 286 289 291 286 283 285 284 284 285 288 289 290 289 286 287 286 286 286 286 286 286 286 287 287 289 289 289 290 291 292 292 292 292 293 290 291 291 290 291 291 291 291 291 292 293 294 295 294 295 295 295 295 295 296 295 294 294 295 296 297 298 297 297 298 298 297 296 297
283 280 284 285 287 288 288 289 289 287 286 286 284 283 282 282 285 287 287 289 289 287 283 285 283 283 285 286 288 287 287 287 288 287 286 286 285 285 285 285 285 286 286 287 288 289 290 290 291 291 291 291 291 290 290 290 290 290 290 291 291 291 292 292 295 294 294 295 295 295 295 295 293 294 295 295 295 296 295 296 296 296 296 296 295 295
280 282 285 287 287 289 288 288 287 286 286 285 283 282 280 284 283 279 285 287 287 286 283 284 282 283 285 287 287 288 287 287 287 287 286 287 286 285 285 285 284 284 285 285 286 287 288 289 289 290 290 290 291 290 290 290 289 289 290 290 290 290 291 291 293 295 294 295 295 295 295 295 293 292 294 294 294 293 293 293 294 295 294 294 294 294
281 284 287 289 290 288 286 286 285 284 281 283 284 283 283 283 284 283 282 286 287 287 287 285 282 282 284 282 283 285 286 285 285 286 286 286 286 286 286 285 285 284 284 284 286 287 287 287 288 288 289 289 289 290 289 289 289 289 289 290 290 290 290 291 292 292 293 293 293 293 293 293 292 292 292 291 291 291 292 292 292 293 294 293 293 293
283 286 287 289 288 288 286 284 283 285 282 282 283 284 284 284 282 283 284 283 282 281 285 283 275 277 283 283 283 284 283 282 283 282 283 284 284 284 283 283 284 285 284 284 285 286 287 287 287 287 287 287 288 288 289 289 289 289 289 289 289 290 290 290 290 291 292 291 290 290 289 288 288 288 288 288 288 289 289 290 291 292 292 292 292 292
284 287 286 286 286 286 286 284 284 285 283 282 281 286 286 285 284 283 282 283 278 277 283 286 276 272 281 281 282 282 281 281 282 282 282 283 283 283 283 283 283 283 284 284 284 285 285 285 285 285 286 286 286 287 288 288 288 288 288 288 288 289 289 290 290 290 291 289 288 288 288 288 287 286 288 289 290 289 290 290 290 290 291 291 291 291
286 284 285 286 285 284 283 283 285 285 283 279 284 285 286 285 283 282 281 281 279 282 283 284 282 275 275 279 282 282 281 280 281 281 282 282 283 283 283 283 283 283 283 283 283 284 284 285 285 284 285 285 286 286 287 287 287 287 287 287 287 288 289 288 289 288 290 288 287 286 286 288 286 286 286 287 288 289 289 288 288 289 289 290 290 290
284 282 282 282 283 282 281 281 284 285 283 282 286 287 284 284 283 283 282 280 279 279 276 280 282 277 276 279 282 282 279 279 280 280 281 282 283 283 284 284 283 283 283 283 283 283 283 284 284 285 284 285 285 286 286 286 286 287 287 287 286 287 287 288 288 289 287 289 287 286 285 284 286 287 287 287 287 286 287 286 287 287 287 288 288 289
284 285 284 283 282 279 282 284 288 288 283 286 290 290 287 285 284 283 280 279 278 276 272 277 279 274 275 279 280 279 280 279 279 280 281 282 282 283 283 284 284 283 283 283 283 283 284 284 284 284 284 284 284 285 287 286 286 286 286 286 285 285 286 287 287 287 287 287 287 285 285 284 284 285 285 285 284 284 285 285 285 286 286 287 287 287
285 290 291 284 281 282 285 285 288 290 289 291 290 286 285 284 282 281 279 278 278 272 273 276 277 276 270 276 277 277 278 280 280 281 282 283 283 283 283 283 284 284 283 283 283 283 284 284 284 284 284 284 284 284 284 285 285 285 285 285 284 284 285 286 286 286 286 287 286 285 285 284 284 284 284 284 283 284 283 283 284 285 285 286 286 286
283 284 284 284 287 286 288 287 288 289 288 286 283 282 282 280 280 277 274 277 270 264 273 275 275 275 268 273 278 277 280 283 282 281 281 282 282 282 283 283 283 283 283 283 282 283 283 283 283 282 283 283 283 283 283 283 284 285 284 284 283 283 284 284 285 285 285 286 286 286 285 285 285 284 284 283 283 283 283 283 283 284 284 284 285 285
280 281 284 285 287 285 281 284 284 286 285 284 281 279 275 267 269 267 267 267 262 263 273 275 276 273 272 275 276 280 282 283 284 284 283 282 283 282 282 283 283 283 282 282 282 282 282 282 282 282 282 282 282 282 282 282 283 283 283 282 282 282 282 283 284 283 284 284 285 285 285 285 287 285 284 284 284 284 283 283 283 283 283 284 284 284
277 282 283 283 285 285 283 279 279 282 282 281 278 273 267 264 261 262 261 261 262 270 275 275 275 270 274 275 278 281 282 284 284 285 285 284 284 283 283 283 283 282 281 281 281 280 280 281 282 282 282 281 281 281 281 281 283 282 282 281 282 282 281 282 282 283 283 283 284 284 285 284 285 284 285 284 284 284 284 284 283 283 283 283 283 284
269 271 278 280 278 284 281 281 281 281 280 280 279 276 272 264 264 263 260 261 264 266 274 275 271 265 270 273 279 282 283 284 285 286 286 285 284 284 283 282 282 281 281 280 280 281 281 281 281 281 281 280 280 281 281 280 281 281 281 281 280 280 281 280 281 282 282 282 283 283 284 284 284 285 285 284 285 284 283 283 283 283 283 283 283 283
272 272 278 281 282 281 280 282 282 279 278 279 279 279 276 272 271 267 264 262 261 266 263 265 268 271 274 279 281 281 282 282 284 285 285 284 284 283 283 282 282 282 281 281 280 280 280 280 280 280 280 280 280 280 280 280 280 280 280 281 280 280 280 280 282 281 281 281 282 282 282 283 285 286 285 284 284 283 283 283 282 282 282 283 283 283
271 271 277 279 280 279 279 281 281 281 274 279 277 273 277 278 274 267 268 270 266 263 262 264 272 276 276 278 280 281 280 282 282 284 284 284 284 282 282 282 282 282 281 280 280 279 280 279 280 280 280 279 280 280 280 280 280 280 280 280 281 280 280 280 281 280 280 281 281 282 282 282 281 281 281 281 281 282 282 283 282 282 282 282 283 283
267 271 275 278 277 280 280 279 281 281 280 277 276 276 278 276 271 267 263 259 256 261 262 269 269 272 271 267 278 280 279 281 281 282 283 284 283 282 283 283 283 282 281 281 280 279 280 280 281 280 280 280 280 280 279 280 280 280 281 280 280 280 280 281 280 280 280 281 281 281 282 282 282 281 282 281 281 282 281 281 281 281 282 281 282 283
273 265 273 276 277 279 280 279 281 282 282 279 279 278 278 270 270 270 265 260 259 256 256 263 271 271 272 273 277 277 278 280 280 281 280 281 282 283 283 283 282 282 281 280 280 280 280 280 280 280 280 280 279 281 280 280 280 280 280 280 280 281 281 281 281 280 281 281 281 282 282 281 281 281 281 282 282 281 281 281 281 281 281 281 281 282
273 263 269 274 277 277 277 278 269 275 280 279 278 276 275 273 268 264 266 262 264 257 259 263 268 268 276 275 277 279 280 281 281 280 280 281 282 284 284 284 283 282 281 281 280 280 280 280 280 280 280 280 281 280 280 280 280 279 280 280 281 281 280 280 279 280 280 280 280 281 281 280 280 281 281 281 281 280 280 281 281 281 280 281 281 281
272 270 261 273 276 275 271 275 273 274 273 275 275 273 274 272 273 272 266 270 264 259 253 259 260 267 275 277 279 280 281 282 282 281 281 281 281 282 284 284 283 282 282 281 281 281 280 280 280 280 280 280 280 280 280 280 280 280 280 279 280 280 280 280 280 279 280 280 280 280 280 280 280 280 280 279 280 280 279 280 281 280 280 280 280 281
263 267 264 267 270 272 273 277 277 276 276 274 273 273 273 270 270 266 264 270 261 263 260 257 262 267 274 279 281 281 282 282 283 283 282 281 281 281 282 284 284 283 282 282 282 281 280 280 280 280 280 280 279 280 280 280 280 279 280 280 280 280 280 280 281 280 280 280 280 279 280 280 279 280 280 279 279 279 279 279 280 280 280 279 280 280
275 267 264 266 268 270 276 279 277 278 277 277 275 274 272 270 264 255 261 263 262 268 264 259 262 261 273 277 278 281 281 282 282 282 282 281 280 280 281 282 284 284 284 283 282 281 281 280 281 281 281 281 281 281 280 280 280 280 280 280 280 279 280 280 280 280 280 280 280 280 280 279 279 279 279 279 279 279 280 280 280 281 280 280 280 281
282 263 262 262 266 273 273 272 274 269 277 275 274 274 273 271 272 265 261 264 262 262 265 261 259 264 274 277 278 279 279 280 280 281 282 281 281 281 280 281 282 283 283 283 282 281 281 280 280 279 279 280 280 280 280 281 280 280 280 280 280 279 280 280 280 280 279 279 279 279 279 279 279 279 279 279 279 279 280 280 280 281 280 280 281 280
267 266 263 257 256 257 261 265 269 268 270 267 272 274 275 275 274 269 263 260 265 262 262 261 259 259 275 279 278 279 279 280 280 281 281 282 281 281 281 281 281 282 283 283 282 282 281 280 279 280 281 281 281 281 280 280 280 280 280 280 280 280 280 280 280 279 279 279 279 279 279 279 278 278 279 279 279 279 279 280 280 280 280 280 280 280
270 265 261 259 258 261 261 260 261 261 263 271 273 274 276 275 273 272 269 260 262 265 266 262 260 269 273 277 279 278 279 279 280 280 280 280 282 282 282 281 281 281 282 282 283 282 281 281 281 280 280 280 281 281 281 281 280 280 280 280 280 280 280 280 279 279 279 279 278 279 279 279 278 278 278 279 279 279 279 280 280 280 280 280 280 280
265 268 260 255 253 258 261 265 269 276 270 266 269 272 274 274 273 272 267 262 263 259 264 266 266 271 273 275 278 279 278 279 281 281 281 282 282 282 282 282 282 281 282 282 282 283 282 281 281 281 280 281 281 280 281 281 281 280 280 280 280 280 280 280 279 279 279 279 278 279 279 279 279 279 279 279 279 279 279 280 280 280 280 280 280 280
260 263 269 266 263 264 270 270 273 275 270 269 270 270 273 273 273 269 265 262 268 265 264 267 271 272 274 275 276 278 279 279 280 281 281 281 282 283 283 283 285 282 281 281 280 281 281 282 282 282 281 281 281 281 280 280 280 280 280 280 280 280 279 280 279 279 279 279 279 279 279 279 279 279 279 279 279 279 279 280 280 280 280 280 279 279
264 266 266 266 263 268 270 271 273 272 272 272 272 270 270 272 271 265 263 268 269 265 267 270 270 271 275 275 275 277 280 281 281 282 283 283 283 282 281 281 282 282 282 281 281 281 281 281 282 282 281 281 280 280 279 279 279 279 279 279 279 279 279 280 279 279 279 279 278 279 279 279 279 279 279 279 279 279 279 280 279 280 279 279 279 280
265 263 265 267 267 267 265 269 271 269 269 268 270 273 274 271 271 272 269 270 271 270 272 272 272 273 276 277 278 279 280 280 281 281 279 280 281 282 281 281 282 282 282 281 281 281 281 281 281 281 281 280 280 280 279 279 279 279 279 280 279 279 279 279 278 278 278 278 279 279 279 279 279 279 279 279 279 279 279 279 279 279 279 279 279 279
271 268 277 267 265 263 266 272 272 270 266 266 270 272 273 273 272 273 270 270 269 271 272 272 272 273 278 278 280 281 280 280 279 279 280 281 281 281 281 281 281 282 282 282 282 282 282 281 281 280 280 280 280 280 280 280 280 280 279 279 279 279 280 279 278 278 278 279 279 279 279 278 279 279 278 279 279 279 279 279 279 279 279 279 279 279
270 266 262 259 266 263 266 267 268 266 266 266 269 270 270 269 268 269 271 273 271 270 267 269 267 272 277 276 277 277 278 278 278 279 280 280 281 280 280 281 281 281 282 282 283 283 282 282 281 280 280 280 280 280 279 279 280 279 279 280 279 280 280 279 278 278 279 279 279 279 279 279 279 279 279 279 278 279 279 279 279 279 279 279 279 279
266 262 265 261 264 260 263 266 265 265 264 266 267 270 272 272 272 273 274 275 276 275 271 265 272 276 276 277 278 278 278 277 278 278 279 279 280 280 280 281 282 282 282 283 283 283 283 282 282 282 281 280 280 280 280 280 279 279 280 280 280 280 279 279 279 279 279 279 279 279 279 279 279 279 279 279 279 279 279 279 279 279 279 279 279 279
271 266 263 265 266 262 261 264 264 264 264 267 275 274 274 273 273 272 273 274 276 277 275 276 278 276 276 277 278 278 278 279 280 281 282 283 282 281 281 281 282 283 283 283 283 283 283 283 282 281 281 281 281 281 281 280 279 280 280 280 279 278 279 278 279 278 279 279 279 279 279 279 279 278 279 279 279 279 278 278 278 279 279 279 279 279
268 265 263 260 265 264 264 266 264 262 264 273 277 276 276 275 275 276 276 276 276 277 278 277 277 277 278 279 278 279 280 281 280 281 281 281 281 282 283 283 282 282 283 283 282 282 282 282 281 281 280 280 281 281 280 279 279 279 279 279 279 279 279 278 278 278 279 278 279 279 279 279 279 279 279 279 279 279 278 279 279 279 279 279 278 278
264 266 265 268 262 262 261 259 264 266 270 275 275 277 277 276 275 276 275 277 277 277 277 277 278 279 280 279 280 280 280 281 280 280 281 282 282 282 282 282 283 283 282 283 282 283 282 282 281 281 281 282 281 280 279 279 280 279 279 279 279 279 279 279 279 279 279 279 279 279 279 279 279 279 279 279 278 278 278 279 279 278 279 278 278 278
275 267 264 265 261 265 260 262 270 270 273 273 275 275 275 275 274 273 270 274 275 277 277 277 278 279 279 279 280 280 279 278 279 281 280 281 281 281 282 283 283 283 283 283 283 283 283 283 282 282 281 280 280 279 280 280 280 279 279 279 279 279 279 279 279 279 279 279 279 279 279 279 279 278 278 278 278 278 278 278 278 278 279 278 278 277
277 269 268 267 266 265 266 263 263 261 261 267 273 276 278 278 276 274 273 274 276 276 278 278 277 278 278 279 279 279 279 277 277 279 278 279 280 281 281 282 282 282 282 283 282 282 281 281 280 280 280 279 279 279 280 280 280 279 278 279 279 279 279 279 279 279 279 279 279 279 279 279 278 278 278 278 278 278 278 278 278 278 278 277 277 276
278 278 276 269 267 263 263 262 259 261 267 272 276 277 279 277 276 274 271 272 277 275 277 278 278 278 278 278 278 277 277 274 277 279 278 278 279 280 280 281 281 281 282 282 282 281 281 280 280 279 279 278 278 280 280 280 279 278 278 279 279 279 279 279 279 279 279 280 280 279 279 278 278 278 278 278 278 278 278 278 278 278 278 277 277 276
272 272 272 268 265 262 259 260 263 262 268 272 274 277 277 276 277 274 267 267 276 277 276 278 278 278 278 278 277 277 277 274 277 279 279 280 280 280 279 281 281 281 281 280 279 279 279 279 278 279 279 279 280 281 280 280 279 278 278 279 279 278 278 279 280 280 279 279 279 278 278 278 278 278 278 278 278 278 278 278 277 277 276 276 276 276
269 270 270 267 262 265 269 262 261 267 273 275 275 277 276 276 275 268 267 274 277 278 277 278 278 279 278 277 277 277 278 281 283 283 281 279 278 280 280 279 279 279 280 280 281 283 281 280 280 280 280 281 281 281 280 280 278 278 278 278 278 278 279 280 280 279 279 278 278 278 278 278 278 278 277 278 277 277 277 277 276 276 276 275 275 275
268 271 271 269 264 263 264 265 266 268 275 276 276 279 278 275 264 267 277 277 277 278 277 278 279 279 278 279 278 279 281 281 281 280 280 280 280 280 280 280 280 280 279 280 280 280 280 279 279 279 279 280 280 280 279 279 278 278 278 278 278 279 280 279 278 278 278 278 278 278 278 278 277 277 277 277 277 276 276 276 276 275 275 275 274 273
266 268 267 267 267 267 267 266 267 265 272 279 278 278 277 272 274 278 276 277 276 277 278 278 278 279 278 279 279 280 280 280 280 280 280 280 280 280 280 280 280 280 280 281 281 281 280 279 279 280 280 280 280 280 279 278 277 278 278 278 279 280 279 278 278 278 278 277 277 277 277 277 276 276 276 276 275 275 274 275 274 274 274 273 273 273
271 268 262 264 270 264 265 265 268 274 275 279 281 276 277 280 280 277 278 281 278 277 277 278 278 279 278 279 280 279 279 279 279 279 279 280 280 280 280 279 279 279 280 280 280 280 279 278 279 279 279 279 279 279 279 278 278 278 277 278 279 278 277 277 277 276 276 276 276 276 276 276 275 275 275 274 274 274 273 273 273 273 273 273 272 271
275 274 272 270 271 271 270 272 276 276 277 281 281 281 279 281 283 280 278 280 280 279 277 277 280 280 279 279 279 279 279 279 280 280 280 281 280 280 280 280 280 280 280 280 280 280 279 279 279 279 279 279 279 279 279 278 277 277 277 278 278 276 276 276 275 275 275 275 275 275 275 275 274 274 274 274 274 273 273 272 272 271 272 271 271 271
274 276 273 275 273 275 278 280 281 278 276 279 281 281 280 280 279 278 279 279 279 280 279 280 280 280 280 279 278 279 279 280 280 280 279 279 279 279 279 279 279 279 279 279 279 279 279 278 278 277 277 278 279 279 278 278 277 276 278 278 278 277 276 275 273 273 273 273 273 273 273 272 273 273 273 273 273 273 272 272 271 271 270 270 270 270
271 273 273 272 273 274 273 275 277 280 281 281 281 282 282 281 282 282 281 280 281 281 280 280 280 280 280 280 279 280 280 280 279 280 279 279 279 279 279 279 279 279 279 279 280 279 278 277 278 277 277 277 279 279 278 277 277 277 277 277 277 276 275 273 272 272 272 272 273 272 272 272 272 272 273 273 273 272 272 271 271 270 270 269 269 269
275 274 274 276 275 274 277 279 279 279 278 278 278 278 278 280 280 281 281 282 282 282 281 281 280 280 279 278 279 279 279 279 279 279 279 279 279 279 279 279 279 279 279 279 279 278 277 277 276 277 277 278 279 278 277 277 277 277 276 276 275 274 272 271 272 272 272 272 272 272 272 272 272 272 271 271 271 271 270 271 271 269 269 269 269 269
275 276 272 272 273 276 278 279 280 281 281 281 281 281 281 282 282 281 280 280 279 279 279 279 279 280 279 280 280 279 278 278 279 279 279 279 279 279 279 279 279 279 279 278 278 277 277 277 277 277 277 277 278 277 276 275 276 276 275 275 274 271 269 271 272 272 271 272 272 271 272 272 272 271 271 270 270 271 271 270 269 270 270 271 272 272
275 275 276 273 274 274 275 279 279 275 279 277 278 279 280 280 280 280 279 279 279 279 279 279 279 279 278 278 278 278 278 279 280 279 279 279 279 279 279 279 279 279 279 279 278 277 276 276 276 276 276 277 277 275 274 275 276 274 273 272 271 270 270 271 271 271 271 271 271 271 271 271 271 271 270 269 269 269 269 272 273 273 271 271 273 274
277 278 277 274 274 275 280 281 279 281 280 281 281 279 279 278 278 278 279 279 280 280 279 279 278 278 279 279 279 278 279 279 280 280 279 279 279 280 280 279 279 279 279 279 277 276 276 277 276 276 275 276 275 275 274 274 273 272 272 272 270 269 270 270 270 270 270 270 270 271 271 270 270 269 269 269 269 269 268 268 270 274 275 275 273 274
Wind_Speed
2 8 6 1 5 7 8 4 1 2 18 17 18 20 18 20 15 14 15 12 27 23 15 16 17 14 11 8 7 4 4 9 11 11 9 8 9 10 10 11 10 10 10 7 9 10 11 11 10 10 10 11 12 13 13 13 14 14 13 12 15 12 12 11 11 11 11 11 10 10 10 9 9 8 8 9 9 9 9 11 11 11 11 11 13 14
2 9 6 6 4 6 8 1 9 18 22 20 17 22 18 21 14 10 9 1 9 24 11 14 20 16 11 8 7 5 6 12 10 10 11 11 10 10 11 10 10 8 5 7 9 11 11 11 11 10 10 12 14 14 13 14 13 12 12 13 11 10 11 12 11 9 9 9 8 7 8 7 7 9 10 10 10 10 8 10 11 10 11 12 12 13
9 6 10 14 9 6 4 9 14 18 23 19 18 16 18 10 18 14 15 12 15 25 11 12 21 14 12 11 9 9 10 10 10 10 9 9 10 9 9 8 8 9 9 9 9 9 10 11 11 10 10 10 11 11 13 12 13 13 12 12 11 11 10 10 10 10 9 8 8 8 7 7 6 7 6 7 7 8 9 10 10 10 11 12 12 13
11 9 16 15 8 9 15 18 18 13 14 16 13 15 15 15 16 9 4 5 5 13 11 14 20 11 10 10 9 8 8 8 9 10 9 8 10 10 9 7 7 7 7 9 9 9 10 10 10 10 10 10 9 10 11 11 11 10 11 11 11 11 10 10 10 9 9 8 7 6 7 5 7 6 5 5 7 8 10 11 11 11 11 12 11 13
5 8 14 7 6 19 20 14 10 12 10 9 9 16 16 11 9 16 12 15 21 17 18 19 15 9 6 7 7 7 8 8 6 8 9 9 8 7 6 7 7 7 6 7 7 8 8 10 11 10 9 8 9 10 10 10 10 8 10 10 9 9 10 10 11 10 8 7 7 6 5 4 4 5 7 7 10 10 9 9 11 11 10 11 11 11
17 17 13 10 11 16 18 11 5 13 12 7 5 10 17 19 21 23 23 19 10 5 4 3 7 6 4 6 6 3 4 6 3 6 6 6 6 5 7 6 5 5 5 5 6 6 7 7 7 7 7 8 8 9 8 7 8 8 8 9 9 8 9 9 10 10 9 9 9 9 9 10 10 10 11 12 11 11 11 11 8 9 10 10 10 11
4 15 8 8 11 14 13 9 4 2 13 10 5 5 22 23 24 19 14 12 6 7 4 1 9 3 0 3 3 3 4 4 3 5 4 4 4 4 4 4 4 4 6 5 5 5 6 6 6 7 8 7 8 7 6 6 7 7 8 8 8 8 8 8 9 10 7 8 9 10 9 8 9 8 7 7 7 7 7 7 8 8 8 9 10 10
8 15 10 13 13 13 9 11 6 2 14 8 3 10 16 17 14 7 8 9 10 5 6 12 6 8 4 1 3 4 4 3 4 3 4 3 4 3 3 3 3 4 4 4 4 5 5 5 6 7 6 6 6 5 5 5 6 7 8 8 8 6 7 7 7 8 8 7 7 8 7 7 7 7 7 8 7 6 6 8 8 7 8 8 9 9
3 12 14 12 12 12 8 2 1 3 10 10 8 4 6 9 11 13 13 10 5 10 7 5 5 6 2 2 1 1 5 1 2 3 2 2 3 3 2 2 3 3 2 3 4 4 4 4 4 4 5 5 5 5 6 6 5 6 6 6 6 7 7 7 7 7 7 6 6 5 5 6 5 4 4 4 5 6 7 8 8 8 7 7 8 8
2 4 6 1 9 8 4 3 11 24 18 4 8 9 7 10 10 10 8 8 3 8 2 4 4 6 1 3 5 1 2 4 3 3 3 3 2 3 1 1 1 2 2 3 3 2 3 3 4 3 4 5 5 5 5 5 5 6 6 6 7 7 6 6 7 6 7 6 5 5 5 5 5 3 4 3 4 4 4 5 6 6 7 7 7 8
3 4 5 10 7 2 7 7 4 16 19 14 9 12 6 6 6 4 6 3 7 7 2 3 2 5 3 6 7 6 6 5 5 1 1 2 1 1 1 1 1 1 1 1 1 1 1 2 3 3 4 4 5 5 5 5 5 5 5 5 6 6 6 6 7 7 7 6 5 5 5 5 5 5 4 5 5 5 4 5 5 5 5 5 5 5
11 12 8 4 9 2 2 12 10 7 5 5 3 4 8 7 6 7 6 6 7 1 5 2 1 1 3 3 6 4 2 10 9 7 6 5 5 4 3 2 1 2 1 0 0 0 1 2 3 3 3 4 5 5 6 5 5 5 5 6 6 7 7 7 7 7 7 6 6 5 5 6 5 5 5 6 7 7 7 7 7 5 5 5 5 5
14 13 6 7 5 17 7 9 6 8 6 7 6 9 8 1 5 2 9 7 2 2 1 1 2 3 2 2 3 3 6 8 8 9 10 8 6 5 4 4 3 2 2 1 1 1 0 0 1 2 2 3 4 3 4 4 4 4 4 4 4 6 6 7 6 6 7 6 6 5 6 5 5 6 5 5 6 6 6 7 7 8 7 7 7 7
7 7 22 13 6 12 6 6 4 7 7 6 5 2 6 5 6 2 2 1 2 4 2 1 2 2 2 2 3 7 7 9 7 8 9 9 9 8 6 5 4 3 3 3 3 2 2 2 1 1 2 2 3 3 3 4 3 3 3 3 3 5 4 5 5 5 5 6 6 5 5 5 4 5 4 5 5 6 5 5 6 6 6 7 7 8
9 9 12 13 5 8 5 6 2 1 3 3 1 1 5 7 6 3 2 2 4 4 2 2 1 2 3 4 4 7 6 5 6 8 8 7 8 8 6 5 5 4 4 4 3 4 4 4 4 3 3 3 3 4 4 3 4 3 4 3 3 4 5 4 4 4 4 5 5 5 5 5 4 5 5 5 5 5 5 5 5 6 6 6 7 7
2 3 5 3 3 3 5 5 0 1 5 2 1 3 6 1 3 6 6 5 2 1 2 4 1 1 2 0 2 2 2 3 4 6 4 5 4 4 4 5 5 5 4 4 4 4 4 5 5 4 4 4 4 4 4 4 4 3 4 4 4 4 5 5 4 4 4 5 4 4 4 5 4 4 4 5 5 6 5 6 5 6 6 6 6 7
1 7 4 8 3 4 5 2 3 1 1 1 3 3 1 3 7 6 2 3 3 5 0 1 3 2 3 2 3 3 4 5 4 5 6 6 6 5 6 6 5 5 5 4 5 5 5 4 4 5 4 4 4 4 4 4 4 4 4 4 5 5 5 5 5 5 5 5 5 6 5 5 4 4 4 5 5 6 5 5 6 6 7 6 7 6
3 2 2 7 8 4 4 1 1 6 1 3 6 3 1 3 6 3 3 3 5 3 3 2 3 2 1 3 4 5 5 8 7 7 7 7 7 7 7 7 7 7 7 7 6 5 5 5 5 5 5 5 5 5 5 5 5 4 4 4 5 5 6 7 5 6 5 5 5 5 6 6 6 5 6 6 6 6 5 6 6 5 6 6 7 6
2 5 4 3 2 7 7 3 6 8 9 6 6 1 1 0 2 3 6 1 1 1 2 4 1 3 6 4 3 9 10 11 10 8 6 7 8 9 8 8 8 6 5 5 6 5 6 6 6 6 6 6 5 5 5 6 5 5 5 5 5 6 7 7 6 5 5 4 5 5 6 6 6 6 6 6 6 6 6 8 7 7 7 7 6 6
3 3 3 4 6 5 5 7 5 9 10 4 2 3 1 5 2 2 0 3 6 1 2 2 2 4 7 6 12 14 15 13 11 8 11 12 12 10 9 8 8 8 7 7 7 7 7 7 7 7 7 7 7 6 6 6 5 5 6 5 6 6 6 6 6 6 6 6 5 6 5 6 5 5 5 6 6 7 7 7 7 8 8 9 8 8
1 1 3 6 7 4 6 4 1 3 4 8 8 5 5 3 1 4 1 2 2 5 3 2 2 7 7 6 10 14 13 13 13 13 12 10 10 10 10 10 9 9 8 8 8 7 7 8 7 7 7 7 6 5 5 5 6 7 5 6 6 7 8 7 8 6 7 6 6 5 7 7 6 6 5 6 6 6 7 7 7 7 7 6 8 8
2 5 4 3 8 6 2 1 1 1 2 1 2 2 2 2 0 1 0 1 3 2 2 4 4 7 8 2 9 10 10 10 12 13 12 11 10 10 9 8 9 8 8 8 8 7 7 7 7 7 6 5 5 7 7 8 6 7 7 8 8 6 7 7 9 7 7 6 6 6 7 7 6 6 6 5 6 6 7 7 7 7 6 7 9 7
2 2 7 6 1 1 2 1 1 1 1 0 3 0 2 2 5 4 2 2 2 0 4 2 0 5 3 2 3 5 6 8 10 9 10 9 9 9 9 9 8 9 9 9 9 8 8 7 8 8 8 8 9 9 8 7 7 8 8 8 7 7 9 7 8 7 7 7 7 8 7 6 6 6 7 7 8 7 9 8 9 8 8 9 9 8
6 5 4 2 6 5 4 1 1 6 0 2 2 1 2 1 0 3 2 3 4 0 1 1 0 6 2 1 3 4 5 5 5 7 11 8 7 8 8 8 8 7 8 7 7 7 8 7 6 6 7 8 8 8 9 9 8 8 8 8 7 8 10 8 7 7 6 7 8 8 7 7 7 6 7 8 8 8 9 9 9 9 9 10 9 10
1 2 4 1 3 4 2 3 1 2 3 2 1 3 1 2 2 1 3 0 2 4 4 6 3 2 2 4 3 1 1 3 6 7 6 8 7 7 8 8 7 8 8 8 9 10 8 7 7 9 9 9 9 8 8 9 9 8 9 8 8 9 9 8 8 6 7 7 8 9 8 8 7 7 8 9 8 9 10 9 9 8 9 10 10 10
4 0 1 1 1 1 1 2 2 2 1 2 0 2 1 3 1 0 0 2 1 1 3 1 5 8 6 4 4 3 1 3 5 4 4 5 6 7 7 8 9 8 10 10 10 8 10 10 9 8 8 9 9 9 9 9 9 9 8 9 8 8 8 9 7 7 7 8 8 9 10 9 7 8 9 9 9 10 10 10 9 10 9 9 11 11
3 2 2 2 3 4 4 2 3 1 1 0 1 1 2 1 2 4 4 2 3 2 4 8 5 5 9 4 4 7 4 6 7 6 7 7 8 7 6 7 8 10 11 11 11 10 7 6 10 11 10 10 10 9 9 9 9 9 8 9 9 9 9 9 8 7 8 8 8 9 10 9 9 9 9 9 10 9 9 10 10 10 11 10 10 11
3 3 1 3 4 3 2 3 2 1 2 4 1 3 1 1 1 2 2 2 4 3 7 4 3 1 9 2 6 7 8 7 8 7 7 7 8 10 10 9 9 8 8 7 7 9 11 11 10 10 11 11 11 10 9 9 9 9 9 10 10 9 8 8 7 8 8 8 9 9 10 9 9 9 10 9 9 10 10 10 10 10 10 10 11 12
2 2 4 4 7 6 6 6 3 1 2 3 5 4 4 5 3 5 4 7 4 4 9 2 1 2 7 4 5 8 9 11 11 12 11 9 7 6 6 8 10 11 10 10 12 11 11 11 11 12 11 11 10 10 10 9 9 8 8 9 10 9 10 10 7 8 8 8 9 11 10 9 8 8 9 9 10 10 11 11 11 11 10 10 11 11
3 1 2 2 6 6 3 1 3 4 2 1 6 9 8 6 8 8 7 6 8 9 8 7 6 13 16 14 10 13 9 8 9 5 4 6 10 9 7 9 11 11 11 12 13 13 12 12 12 12 11 10 10 10 10 9 9 9 9 9 9 9 10 7 8 8 8 9 10 10 9 9 8 9 9 9 11 11 11 10 11 11 11 11 12 12
1 1 1 1 3 6 1 0 4 2 2 6 6 7 7 7 6 9 4 5 4 8 11 10 10 16 12 6 11 9 7 6 5 7 10 10 9 9 9 10 11 11 12 12 11 12 12 12 12 11 10 11 11 11 10 10 10 9 8 9 9 9 10 6 7 8 8 10 10 9 9 8 9 9 10 11 10 10 11 12 11 11 11 12 12 13
4 0 2 2 3 3 1 2 2 2 2 7 12 11 9 6 6 6 7 8 7 9 1 1 3 11 9 3 4 4 0 3 7 9 9 9 9 8 8 10 10 10 11 12 12 12 12 12 12 12 12 12 11 10 9 10 10 8 9 9 9 10 8 6 7 8 9 10 9 9 9 10 10 10 11 10 10 11 11 11 11 11 12 12 13 13
1 1 1 2 3 2 3 1 4 6 5 5 9 11 12 8 5 1 4 4 10 5 5 5 11 5 3 1 1 2 5 5 6 8 9 9 8 7 9 10 11 10 11 12 12 12 12 12 12 12 11 9 9 10 11 11 9 9 10 9 11 8 6 8 8 9 9 9 9 10 10 10 10 11 10 10 10 10 10 11 11 12 13 14 14 13
1 2 1 0 1 4 8 7 2 2 1 2 2 4 7 7 11 7 6 10 11 10 8 7 10 4 3 2 4 6 5 6 7 9 8 7 6 6 8 9 11 11 11 11 11 11 11 10 9 9 10 10 10 10 11 9 9 10 9 9 7 7 8 7 9 8 10 9 9 10 10 10 10 11 11 10 10 10 10 11 12 13 13 13 13 13
1 2 0 1 0 4 6 7 2 1 3 2 2 3 1 3 9 10 10 8 7 12 12 11 13 12 13 8 7 9 9 8 6 7 7 7 6 8 10 10 10 10 11 11 11 10 11 11 10 9 9 10 11 10 9 9 9 9 8 8 9 8 8 8 9 9 9 8 9 9 9 10 10 11 11 10 10 10 11 12 13 14 13 12 13 13
0 1 1 0 0 1 3 4 3 3 2 4 7 3 2 3 1 0 9 12 12 14 15 15 16 14 11 10 9 9 10 10 7 7 9 10 8 9 8 9 10 10 10 10 11 12 11 10 11 11 11 9 8 8 7 10 9 7 9 7 8 9 8 9 9 9 8 9 10 10 10 10 11 11 10 10 10 11 12 13 14 15 14 12 12 12
4 2 1 1 0 0 1 1 9 9 11 3 1 1 3 3 4 3 3 7 5 7 11 10 11 11 12 12 12 10 4 4 8 11 4 8 8 7 10 10 10 10 10 11 11 12 11 9 9 10 8 7 8 8 9 9 8 7 8 8 9 9 9 9 9 9 9 10 10 10 9 9 10 10 10 10 11 12 13 14 15 14 12 13 13 13
0 1 1 1 1 1 0 6 6 5 1 5 3 1 1 2 3 4 2 9 4 7 7 9 8 11 10 9 9 6 1 3 10 10 3 6 7 7 8 9 8 9 9 11 10 9 9 9 7 8 8 9 9 10 10 8 8 7 7 9 9 9 10 9 10 9 10 10 9 9 9 8 8 9 10 10 12 14 14 14 13 13 11 12 14 15
2 3 2 2 1 3 1 1 2 2 6 3 3 3 1 1 5 2 3 9 5 5 7 8 9 8 8 7 7 2 2 5 11 9 5 5 6 6 8 8 8 9 9 9 10 10 9 8 7 7 6 7 10 12 10 9 8 7 9 9 10 9 10 10 10 10 10 10 8 8 8 7 8 9 10 11 13 13 15 14 13 12 11 12 13 14
4 1 1 2 0 1 2 2 5 5 6 2 4 2 2 3 2 2 5 6 2 4 6 8 8 8 7 8 5 4 6 8 11 8 4 8 7 6 5 7 8 9 9 9 7 8 9 7 6 8 10 11 13 11 10 7 6 7 9 10 9 9 11 11 11 10 8 7 8 7 7 7 8 9 10 12 13 14 14 13 12 13 13 14 13 14
1 2 0 4 2 3 5 4 4 8 8 4 5 4 3 3 3 2 5 5 4 6 5 7 8 9 7 6 5 6 9 12 11 9 6 4 4 7 7 6 9 8 9 9 10 9 7 8 8 10 12 11 11 10 9 7 6 9 9 9 9 11 11 11 9 7 7 7 8 8 8 7 8 11 11 12 13 12 12 12 13 13 14 15 14 14
0 2 2 1 2 3 4 4 7 9 10 7 1 8 6 3 1 6 8 3 5 5 5 9 9 9 7 9 8 10 10 10 10 7 7 8 9 9 8 8 8 7 8 8 10 9 8 8 9 10 11 11 11 10 8 6 7 9 9 8 11 12 10 7 6 6 7 8 8 8 8 9 9 9 11 11 11 11 12 13 13 14 14 13 13 15
5 4 4 4 3 1 1 2 6 5 1 5 11 4 0 2 9 6 2 2 5 4 5 7 9 9 6 8 10 10 10 9 9 9 9 9 9 10 10 9 9 10 10 10 10 8 8 8 9 10 11 11 9 7 7 6 8 10 9 10 13 10 7 6 6 7 7 8 8 9 10 10 10 11 10 10 10 11 13 13 14 14 14 14 15 15
4 1 2 4 6 5 6 6 8 7 3 10 13 6 8 14 5 6 2 6 3 5 4 6 6 8 7 9 9 9 9 10 9 9 10 10 10 10 9 9 9 9 10 9 9 10 7 8 9 10 10 10 9 8 7 7 10 10 10 13 11 7 5 5 7 6 7 8 9 9 10 10 11 11 10 11 11 12 14 14 13 13 12 13 13 14
9 7 7 4 5 7 10 12 10 5 5 13 12 7 5 12 9 5 3 6 6 6 5 3 7 7 8 10 10 9 9 8 12 11 11 12 10 9 10 11 11 11 10 10 11 10 7 9 12 11 11 10 10 10 8 7 9 11 12 12 7 5 5 6 6 6 7 8 9 10 10 11 11 11 11 11 11 12 13 13 13 13 12 12 13 13
3 4 1 0 8 7 14 16 10 6 6 10 11 8 7 6 5 4 6 7 6 9 5 8 7 8 8 7 8 8 9 11 11 11 10 10 10 10 9 10 10 9 9 9 10 10 9 9 8 9 11 11 9 9 7 8 7 9 12 8 6 6 5 6 6 7 9 9 9 10 10 11 12 12 12 12 11 11 11 12 12 12 12 12 12 12
4 4 3 4 2 6 13 3 8 16 16 11 12 12 11 10 12 9 7 8 11 9 8 7 10 10 9 7 9 12 13 10 11 12 10 9 9 10 11 11 10 9 10 11 12 8 9 7 9 10 9 11 11 8 8 7 7 8 7 7 7 6 6 5 6 7 8 11 11 10 10 11 11 11 11 11 11 10 10 10 10 10 12 11 13 11
6 3 3 11 7 8 17 8 11 7 5 5 7 6 9 11 11 9 11 11 11 9 8 10 8 9 7 9 10 11 13 10 10 11 10 9 10 10 10 10 10 10 10 9 10 8 7 8 8 10 10 12 11 7 6 6 7 7 6 6 5 5 5 6 7 8 10 12 10 10 10 10 13 14 11 11 11 11 11 11 11 11 11 12 12 12
4 4 7 4 5 9 13 21 26 22 15 18 17 14 14 13 12 11 10 10 9 9 11 10 8 11 8 11 10 9 11 11 10 11 11 10 10 9 10 10 9 10 10 10 9 7 9 8 9 10 10 11 9 7 5 6 6 6 5 5 5 4 5 8 8 9 10 10 9 10 9 10 11 11 11 12 12 11 10 11 12 13 13 14 10 9
2 13 6 2 11 13 13 18 2 5 10 1 6 10 10 11 9 11 9 8 9 10 10 10 10 9 9 9 9 9 11 13 11 9 11 11 11 11 10 10 10 10 11 9 7 7 7 7 8 9 10 10 7 5 5 6 6 4 4 4 4 4 6 8 9 9 10 9 9 9 10 10 11 11 11 11 12 12 13 14 20 20 17 15 20 31
13 17 7 9 7 13 16 12 5 10 13 13 7 5 7 6 5 7 9 10 10 9 9 9 9 8 8 9 8 9 11 12 14 10 11 10 11 11 10 10 11 11 11 9 7 7 7 9 8 8 9 9 5 5 5 5 4 4 5 4 4 4 6 6 8 9 10 10 9 10 11 11 11 11 11 11 12 12 12 14 16 27 34 31 27 29
Wind_Direction
155 78 73 107 309 292 286 259 139 155 108 105 112 107 100 99 95 107 105 118 101 84 77 97 96 91 90 79 76 47 41 59 66 69 67 64 65 61 60 58 55 52 52 50 49 45 37 35 34 32 33 35 35 35 30 30 28 26 24 20 25 17 14 18 19 21 19 18 16 23 27 32 24 23 21 28 23 25 25 19 20 23 28 24 21 20
100 56 7 336 300 266 258 222 111 117 114 110 106 106 104 105 110 121 118 164 102 100 103 98 89 81 84 89 88 92 64 63 61 65 65 63 59 59 55 51 48 49 41 41 44 41 39 34 29 30 33 29 31 26 24 28 26 24 23 27 23 18 18 20 22 20 23 22 21 18 20 23 22 18 21 21 22 19 19 21 21 23 23 25 26 20
52 43 333 318 302 266 238 106 106 116 111 113 111 109 104 96 99 84 89 98 94 98 114 108 90 87 85 86 80 72 68 66 58 57 61 61 58 51 46 45 44 40 37 35 40 38 35 34 31 31 31 33 34 29 27 22 22 21 22 23 21 19 19 18 17 21 22 16 17 21 19 26 32 31 23 28 20 19 20 23 23 23 25 23 25 21
34 351 323 303 292 133 101 102 109 97 92 111 125 115 113 136 125 132 66 54 336 115 133 101 91 81 82 68 62 48 60 60 59 59 55 49 57 51 46 41 38 36 33 35 31 31 31 31 32 29 30 26 28 30 28 25 24 23 19 17 17 17 18 17 15 19 18 16 12 19 20 22 40 28 15 24 24 25 23 25 21 25 23 23 23 20
66 311 310 316 111 115 105 99 106 105 77 1 113 119 128 137 101 113 114 101 94 94 115 101 82 81 51 72 71 53 52 62 47 58 58 52 52 50 49 48 41 41 33 38 33 31 31 32 30 27 24 21 27 25 25 22 22 22 17 15 17 18 15 15 13 13 13 14 22 18 24 29 32 38 30 24 25 22 20 20 21 19 20 21 22 20
17 348 318 84 90 91 102 90 41 107 91 68 342 131 118 113 115 117 129 124 110 130 237 67 79 55 64 79 74 53 45 53 33 59 49 46 42 38 44 41 30 34 38 42 38 33 33 34 30 27 24 26 23 23 18 15 18 18 16 13 14 20 19 16 14 10 14 19 20 18 22 22 21 23 20 20 11 8 13 12 3 12 15 17 18 19
358 338 354 73 91 89 83 80 24 43 112 102 357 87 121 125 124 129 133 110 86 124 316 41 120 121 104 106 117 99 78 63 44 60 57 52 46 43 43 39 32 33 29 25 35 30 32 24 28 24 23 15 19 8 359 7 11 11 14 13 11 15 18 12 14 12 16 25 25 26 28 28 25 24 22 14 9 11 7 5 9 10 11 15 16 16
345 354 22 45 61 70 77 72 343 60 99 66 56 102 106 109 108 103 81 83 114 116 59 43 61 123 143 226 153 148 105 104 72 59 54 60 61 55 47 42 40 36 34 43 29 28 26 27 29 26 8 10 5 351 354 4 5 5 5 9 9 10 14 13 8 13 12 26 24 27 26 27 27 25 12 5 5 3 3 8 10 7 10 11 13 12
317 8 26 27 56 54 55 288 308 74 87 124 122 87 71 93 100 98 92 100 122 98 57 19 3 78 87 159 108 166 107 66 107 114 86 77 77 59 48 37 41 38 47 58 48 28 22 19 16 13 9 352 357 359 359 360 359 358 356 3 7 9 10 5 8 14 13 20 25 27 26 27 19 17 5 354 356 3 359 10 5 9 6 6 8 10
300 43 25 300 51 49 347 49 113 108 100 129 121 74 85 90 79 79 93 93 23 64 44 335 18 100 99 186 188 334 123 178 197 179 169 161 151 123 108 49 28 24 34 32 36 29 13 0 358 346 354 0 352 351 354 354 356 358 357 1 4 6 3 360 1 6 8 14 16 25 23 29 14 6 351 354 1 5 354 7 4 1 1 0 1 3
34 262 261 42 15 346 56 15 68 96 119 145 126 118 93 66 69 54 63 66 70 44 327 298 335 113 173 214 200 161 217 175 162 213 209 209 180 187 163 166 149 81 36 31 5 357 342 329 345 353 2 339 350 348 357 354 351 350 357 353 359 355 353 353 357 360 2 2 6 13 9 11 9 356 356 359 6 4 3 8 1 1 355 352 357 353
46 34 43 16 23 39 36 82 32 49 66 87 98 112 102 40 33 37 0 32 81 299 279 306 69 101 133 239 213 235 243 153 162 172 191 193 189 194 202 197 194 190 213 247 7 324 342 353 352 1 354 342 335 349 349 345 345 346 347 351 353 347 351 347 349 354 352 356 355 359 360 1 355 355 355 356 355 355 354 355 352 348 345 353 346 350
39 38 32 28 37 42 349 73 41 41 20 59 60 38 91 77 43 8 6 28 45 164 253 325 297 2 5 244 212 171 174 175 181 171 176 182 193 192 202 207 210 214 213 221 234 254 290 288 314 337 321 330 334 321 321 321 321 327 329 342 345 329 333 336 337 345 339 345 344 344 343 342 342 345 348 343 341 339 345 341 341 344 347 343 347 349
15 19 23 354 16 8 23 76 23 49 351 40 53 92 70 71 50 85 287 242 348 300 262 309 346 89 279 300 219 177 194 180 183 177 178 180 181 187 195 203 205 221 207 209 221 231 235 249 249 252 265 276 279 294 295 296 300 298 301 305 315 298 305 315 326 325 329 324 324 329 327 325 327 326 333 328 326 320 324 329 327 328 330 331 332 332
72 7 357 8 360 344 32 61 3 164 48 42 223 116 150 141 151 145 189 150 196 191 248 306 76 241 139 254 200 210 191 188 175 178 187 187 180 182 191 191 201 208 228 220 222 218 216 228 224 221 228 238 243 253 267 266 266 271 280 285 293 301 304 309 299 307 310 307 309 311 312 312 318 313 319 316 313 309 312 314 316 310 311 315 312 317
61 112 281 297 248 329 32 325 145 89 58 358 121 73 58 47 154 120 203 145 179 136 14 346 193 194 195 278 277 275 226 201 182 176 171 190 188 181 183 199 204 213 218 222 227 237 237 229 229 231 234 234 234 244 252 259 256 264 266 269 271 267 280 289 296 297 283 287 290 289 293 293 292 296 301 300 304 304 299 297 303 301 303 299 302 301
359 34 293 319 351 57 4 324 21 266 111 257 51 36 174 170 96 100 58 56 77 53 306 192 323 298 294 322 240 203 202 207 200 187 184 187 192 185 197 205 212 212 216 221 224 227 237 248 243 231 233 245 248 252 250 252 255 254 273 288 295 295 298 293 285 285 295 297 313 308 305 302 305 295 285 279 282 281 284 284 284 286 286 294 294 295
131 179 301 36 346 351 34 205 114 55 127 66 78 223 141 108 121 117 142 332 56 134 249 13 234 295 52 269 188 194 209 213 209 205 200 196 187 197 212 208 208 212 212 213 217 219 222 225 234 241 242 238 234 236 252 258 258 247 248 255 266 278 282 282 279 281 281 286 292 291 297 299 300 300 300 298 294 296 298 292 284 280 288 283 283 285
74 45 318 16 280 288 338 50 14 8 31 91 149 160 99 213 32 346 90 54 68 287 282 314 281 254 200 241 166 206 205 214 215 210 205 208 204 211 215 219 222 223 224 226 230 230 233 236 235 232 235 240 246 246 242 253 260 267 265 253 237 254 258 259 268 269 272 260 260 266 273 281 292 296 297 296 296 299 303 302 301 302 294 299 296 296
41 126 309 317 24 297 19 34 42 315 330 24 39 23 346 90 123 80 146 172 108 208 59 287 46 249 201 217 190 205 205 204 203 203 212 208 202 207 212 212 213 217 216 220 224 226 228 231 233 232 234 243 244 247 246 246 260 269 262 267 271 268 268 272 269 264 272 270 266 271 275 276 269 276 277 283 288 292 290 289 293 295 302 297 304 300
280 116 90 282 328 41 22 11 66 329 341 336 22 349 3 17 236 108 33 59 155 161 171 159 323 270 252 203 180 206 205 202 194 203 210 211 210 209 208 205 210 212 215 220 221 227 231 236 241 244 242 242 250 253 258 253 248 250 262 265 260 259 272 276 270 269 265 269 269 267 270 272 276 277 275 277 275 272 274 277 277 275 271 285 284 285
56 12 122 319 17 38 194 248 206 193 212 190 141 88 182 43 40 97 296 38 74 89 211 115 248 269 271 168 195 205 212 202 202 201 207 212 214 213 216 217 208 212 223 220 224 225 232 239 244 250 255 257 258 259 253 250 247 256 253 247 256 261 259 261 273 265 266 268 268 268 270 273 273 274 280 282 286 284 281 280 280 279 285 280 280 280
108 121 91 44 93 187 254 291 327 264 162 307 125 59 143 129 96 93 125 253 41 45 116 155 71 277 245 211 214 225 211 208 206 198 211 215 217 220 223 219 220 214 214 219 224 228 230 232 232 233 235 237 237 241 245 251 246 246 249 253 252 249 260 251 254 263 264 267 271 273 270 271 275 280 286 290 291 290 290 289 289 290 289 288 288 285
88 54 41 321 311 304 316 307 93 38 48 7 354 61 61 37 202 165 167 189 131 317 66 5 237 252 285 289 257 240 235 221 211 195 207 217 220 227 227 229 227 232 240 238 237 236 234 235 240 248 252 250 248 247 245 245 248 250 251 249 251 252 255 260 254 253 258 260 262 263 269 268 269 274 275 278 276 279 279 280 281 283 283 282 285 286
42 331 113 35 359 334 342 343 6 331 51 87 332 329 35 69 65 157 112 67 81 224 165 116 228 290 281 334 348 17 156 194 208 228 210 216 230 229 231 235 233 234 235 237 236 235 239 244 246 241 240 242 245 248 249 250 249 248 251 251 249 249 252 257 257 251 256 256 263 269 269 270 268 269 272 271 273 272 274 274 276 276 276 279 280 278
89 225 87 106 114 62 357 350 286 294 272 280 274 333 29 66 88 36 217 359 89 276 113 158 255 260 283 328 329 317 312 261 252 241 248 229 229 229 233 235 236 232 234 233 237 241 239 236 239 245 245 246 246 245 248 250 250 252 251 254 250 251 256 255 253 246 253 258 262 268 270 272 272 269 268 270 271 271 272 274 275 275 275 273 276 279
121 103 101 149 145 181 204 210 247 157 33 40 276 324 282 46 40 94 99 88 221 200 208 238 186 306 309 277 263 260 253 234 241 247 246 247 247 248 244 242 234 230 230 231 230 234 243 252 246 243 246 244 247 247 247 248 253 253 253 257 257 249 248 255 256 254 253 257 258 265 268 270 269 268 269 269 270 271 273 273 273 274 274 274 274 277
69 49 83 139 207 212 187 209 197 149 192 230 200 280 227 203 172 104 154 221 183 84 296 263 231 214 262 244 245 243 241 245 246 246 248 254 251 241 239 239 244 250 252 249 251 245 239 241 247 248 248 249 248 250 252 252 250 252 253 255 258 257 253 254 249 253 256 258 262 262 267 266 265 267 267 268 270 270 271 272 273 272 272 275 276 276
122 84 305 66 275 247 255 251 236 309 220 221 202 204 191 208 137 159 229 211 146 177 219 223 151 233 261 220 237 236 231 230 230 232 230 237 258 263 263 257 249 244 243 241 242 242 242 244 244 247 249 247 250 253 255 256 258 256 255 253 257 260 258 257 257 261 258 261 261 263 264 267 266 265 266 268 268 270 271 271 271 272 272 272 273 274
92 8 233 96 279 304 295 229 207 191 259 283 234 227 229 198 213 207 225 201 186 232 245 253 263 266 264 268 250 249 238 231 243 254 283 275 253 254 256 253 249 245 240 238 239 240 241 243 246 247 248 251 249 250 253 254 253 252 253 258 256 254 256 254 254 256 262 260 261 264 265 264 266 267 268 268 268 268 271 272 272 272 273 273 272 274
102 279 113 180 357 301 294 353 112 179 182 276 259 236 222 218 232 227 234 233 214 275 262 267 277 281 274 218 248 258 253 241 257 257 250 251 254 248 244 246 246 243 242 241 243 245 244 245 247 250 250 249 248 247 247 248 252 254 257 259 260 258 258 249 257 257 256 262 262 265 268 267 267 268 267 265 268 272 272 273 272 272 273 274 275 276
53 249 64 68 25 312 312 26 302 31 239 235 272 259 230 201 232 212 208 207 166 219 137 142 258 253 260 220 248 255 187 198 224 241 249 251 249 248 243 246 244 244 243 242 243 246 249 249 249 247 246 246 247 249 251 253 251 252 255 257 258 255 256 253 251 255 259 260 267 268 268 268 270 269 268 269 270 271 272 273 274 273 274 277 279 278
57 111 26 22 50 267 262 52 316 335 326 306 269 239 204 198 195 256 265 207 214 151 148 187 232 222 234 216 223 265 203 221 228 236 245 253 246 234 236 240 241 243 243 245 247 248 247 246 245 246 248 250 251 251 250 248 251 251 252 254 252 257 255 253 251 260 263 264 267 269 267 268 269 269 270 269 270 272 274 275 275 276 277 277 277 281
8 83 106 211 107 254 290 319 335 50 29 226 232 166 136 174 191 206 230 211 213 181 216 203 244 280 294 267 216 254 236 228 213 230 213 224 239 243 243 243 245 247 251 253 252 253 256 255 252 248 244 245 251 250 253 250 245 249 253 257 264 260 257 256 262 256 262 265 264 265 267 269 270 271 271 272 273 273 275 275 275 275 275 278 281 280
34 45 113 150 100 281 308 336 47 0 235 249 303 193 212 137 170 205 250 238 215 218 246 275 269 266 255 252 255 256 256 258 250 256 263 247 236 250 256 257 252 250 252 260 265 260 251 248 251 255 259 256 250 253 257 260 251 256 264 260 260 256 260 258 257 260 260 263 263 265 268 270 271 272 274 275 276 278 277 277 278 279 280 280 281 284
56 71 242 343 174 332 31 19 45 245 230 244 273 265 194 81 137 266 287 262 230 208 214 235 248 260 272 276 268 252 255 275 285 251 245 256 235 233 242 249 255 256 259 254 251 253 253 247 243 244 248 251 257 259 250 254 258 262 259 261 260 265 257 259 261 262 265 264 266 267 268 269 272 274 275 276 278 278 278 278 279 281 283 284 285 283
126 103 83 314 82 199 220 190 238 310 329 15 36 110 154 165 170 160 260 288 226 200 196 222 247 258 264 263 264 273 295 319 291 279 219 232 240 224 223 241 244 250 250 257 253 255 253 255 253 252 254 261 261 261 259 259 265 262 268 270 265 262 263 262 265 267 267 265 267 268 267 266 268 271 275 275 279 280 281 283 284 284 287 288 286 288
45 97 242 83 321 128 218 321 336 10 334 278 232 284 275 231 146 153 89 286 234 226 187 193 225 241 250 261 268 274 35 328 286 280 266 245 232 242 248 245 256 260 262 263 268 266 264 262 265 264 257 264 266 263 267 268 266 270 270 270 270 269 269 266 268 268 266 265 265 266 265 264 263 267 274 280 282 283 283 283 283 284 289 288 291 290
40 7 68 130 208 28 53 150 245 198 251 201 238 225 245 125 133 144 32 296 275 199 194 184 217 237 235 241 257 108 147 249 260 269 260 250 257 235 247 259 258 259 262 263 260 261 261 257 253 267 279 270 271 268 264 267 272 274 272 270 272 271 271 271 271 269 267 268 268 267 266 266 266 270 275 280 282 283 284 286 288 291 291 288 288 287
42 52 36 37 333 199 130 146 252 213 242 264 222 234 217 141 88 64 358 280 258 215 193 178 210 228 237 234 208 174 197 248 264 262 219 226 228 245 232 259 267 270 269 266 259 242 254 277 300 287 276 273 267 270 277 280 280 275 272 274 273 274 272 272 269 270 271 271 271 269 269 266 266 271 276 279 282 284 286 291 293 293 292 290 289 291
76 352 27 214 173 221 201 272 307 288 266 235 213 189 151 154 74 73 249 241 235 212 205 183 218 223 216 221 172 217 221 224 250 266 264 275 295 280 263 245 249 256 268 274 273 279 281 274 262 264 266 269 274 279 283 287 286 278 272 273 276 272 271 271 274 276 272 273 274 273 271 270 270 277 278 280 284 288 291 292 292 294 293 293 293 291
208 166 215 93 171 198 192 190 242 259 249 183 286 152 167 109 183 203 233 211 160 213 215 197 216 233 214 213 206 220 237 237 252 278 288 278 266 268 275 274 279 277 261 256 262 268 265 265 268 270 272 269 271 276 278 280 277 275 276 277 272 271 275 279 276 275 277 277 276 276 277 278 280 278 282 286 289 293 292 291 291 292 292 291 291 291
197 147 204 187 194 79 65 328 333 317 294 129 129 83 287 155 230 209 215 258 199 223 201 221 214 241 203 239 232 236 250 267 269 270 273 277 277 276 277 280 277 275 277 282 283 268 268 277 276 274 274 280 279 280 281 284 281 279 280 277 275 280 286 284 282 281 281 281 281 282 283 284 285 289 290 292 294 293 292 292 293 292 291 291 291 290
195 158 245 248 186 147 175 179 205 213 194 182 154 173 207 217 199 169 169 276 232 209 226 232 238 231 228 229 244 253 254 267 277 274 273 271 272 272 272 270 268 267 269 262 256 268 271 272 270 275 277 280 281 280 283 284 283 283 280 278 279 289 288 283 279 280 283 283 283 286 288 289 292 293 295 295 295 292 291 292 292 291 291 291 291 291
195 194 182 216 206 173 201 214 232 243 206 197 211 215 204 224 240 236 212 250 275 269 207 226 249 246 234 240 252 256 274 257 264 267 271 273 274 275 274 270 269 272 274 278 279 282 283 272 277 280 282 279 281 284 281 271 270 278 279 277 289 284 282 281 284 287 284 284 287 290 291 295 296 296 295 294 294 294 293 292 294 295 294 293 292 290
267 204 149 291 246 270 266 245 242 241 217 232 244 261 273 274 265 235 238 263 245 247 225 236 253 252 255 239 255 264 251 267 271 273 269 270 270 270 267 272 274 270 269 272 279 275 268 274 273 275 276 279 274 277 276 272 260 268 272 286 290 284 280 286 291 292 289 288 289 291 295 297 296 295 294 293 291 288 288 290 295 293 293 291 288 288
241 171 161 222 255 9 288 71 213 232 246 245 241 248 257 256 259 261 269 244 258 260 261 249 250 256 255 260 253 263 269 266 269 268 268 272 269 267 268 269 271 270 275 278 273 278 283 278 280 278 278 281 284 281 278 274 270 260 274 281 286 293 299 300 295 292 292 293 296 298 299 298 297 298 297 297 297 294 294 296 292 290 289 287 290 291
305 175 183 233 227 203 252 271 275 234 203 235 226 243 253 252 252 250 242 253 258 260 252 260 262 265 255 257 249 255 264 263 263 268 269 266 269 270 270 269 271 276 270 262 272 274 273 271 269 276 279 280 281 282 277 276 274 273 277 284 290 296 309 303 297 296 297 298 301 301 301 299 297 298 298 297 299 300 300 297 294 291 287 289 291 295
191 117 243 157 200 258 284 277 265 280 267 252 246 240 246 255 259 259 250 246 247 254 260 259 239 247 249 252 256 258 264 262 253 262 269 273 271 268 268 269 271 270 275 280 276 269 266 272 276 272 273 276 281 285 285 274 273 276 285 287 294 307 313 300 300 301 300 300 302 300 301 298 298 298 299 300 298 295 292 296 295 291 287 283 279 280
89 252 205 350 282 268 245 258 275 314 293 248 243 236 235 240 238 247 262 269 258 257 255 259 263 252 244 247 251 247 254 270 271 270 272 269 269 272 276 276 277 278 277 273 270 267 270 266 262 270 273 275 280 282 277 276 279 289 285 286 292 313 311 305 305 306 301 302 301 302 303 302 302 302 302 301 300 302 299 291 291 294 294 295 299 301
204 229 153 208 195 249 253 250 224 234 265 266 257 238 225 230 213 233 242 247 252 246 251 255 263 269 263 258 236 243 256 265 272 272 271 274 271 270 273 278 281 279 276 278 284 282 272 271 273 273 276 277 283 277 272 278 291 297 289 288 303 311 301 302 304 301 302 304 303 304 304 303 303 302 301 301 302 302 301 304 300 301 301 301 302 302